Regional Weather Roundup
Issued by NWS

Home | Current Version | Previous Version | Text Only | Print | Product List | Glossary On
Versions: 1 2 3 4 5 6 7 8 9 10 11 12 13 14 15 16 17 18 19 20 21 22 23 24 25 26 27 28 29 30 31 32 33 34 35 36 37 38 39 40 41 42 43 44 45 46 47 48 49 50
000
ASUS46 KSTO 280115
RWRCA

NORTHERN AND CENTRAL CA REGIONAL WEATHER ROUNDUP
NATIONAL WEATHER SERVICE SACRAMENTO CA
600 PM PDT SAT AUG 27 2016

NOTE: FAIR INDICATES FEW OR NO CLOUDS BELOW 12,000 FEET WITH NO
SIGNIFICANT WEATHER AND/OR OBSTRUCTIONS TO VISIBILITY.

CAZ001-003-280200-
NORTHWEST AREA

CITY           SKY/WX    TMP DP  RH WIND       PRES   REMARKS
CRESCENT CITY  CLOUDY    58  53  84 W5        30.04S
UKIAH          SUNNY     83  56  39 SE9       29.91R
$$

CAZ006-505>513-280200-
BAY AREA

CITY           SKY/WX    TMP DP  RH WIND       PRES   REMARKS
SANTA ROSA     MOSUNNY   69  54  58 S10       29.97R
SAN RAFAEL     N/A       MM  MM  MM MISG
NAPA           SUNNY     69  56  62 S20       29.96R
CONCORD        SUNNY     71  51  49 W15       29.96S
OAKLAND CITY   N/A       MM  MM  MM MISG
OAKLAND        MOSUNNY   68  55  63 W17       29.99S
SAN FRAN CITY  N/A       65  MM  65 MISG
SAN FRAN ARPT  MOSUNNY   67  53  61 W17       29.99R
LIVERMORE      SUNNY     71  53  52 W18       29.95R
HAYWARD        SUNNY     68  52  56 NW16      29.98S
REDWOOD CITY   N/A       74  MM  55 MISG
MOFFETT ARPT   SUNNY     71  57  61 N15       29.98R
SAN JOSE ARPT  MOSUNNY   73  56  54 NW15      29.97R
$$
CAZ034-037-514>518-280200-
CENTRAL COAST

CITY           SKY/WX    TMP DP  RH WIND       PRES   REMARKS
WATSONVILLE    SUNNY     65  56  72 SW13      30.01S
SALINAS        SUNNY     67  54  63 W14       30.00S
MONTEREY       MOSUNNY   65  53  65 SW10      30.02R
SAN LUIS OBISP SUNNY     68  54  60 NW17      29.99R
SANTA MARIA    SUNNY     65  55  70 NW15      30.01R
$$
CAZ015-016-280200-
NORTHERN SACRAMENTO VALLEY

CITY           SKY/WX    TMP DP  RH WIND       PRES   REMARKS
REDDING        SUNNY     92  45  19 S15       29.84S
RED BLUFF      SUNNY     89  49  25 S15       29.87R
OROVILLE       SUNNY     87  52  29 S13       29.89S
$$
CAZ016>018-280200-
SOUTHERN SACRAMENTO VALLEY

CITY           SKY/WX    TMP DP  RH WIND       PRES   REMARKS
AUBURN         SUNNY     82  50  32 SW6       29.97S
BEALE AFB      SUNNY     85  56  37 S9        29.87S
LINCOLN        FAIR      86  46  25 SW12      29.88S
MARYSVILLE     SUNNY     86  54  33 SE13      29.88F
SAC INTL ARPT  SUNNY     81  55  40 S15       29.88S
MATHER AIRPORT SUNNY     82  50  32 SW9       29.91
DOWNTOWN SAC   N/A       81  MM  MM MISG
SAC EXEC ARPT  SUNNY     78  55  44 SW9G18    29.90S
VACAVILLE      SUNNY     80  54  40 SW9G18    29.90S
TRAVIS AFB     SUNNY     74  55  51 SW25G31   29.89S
$$
CAZ019>021-280200-
SAN JOAQUIN VALLEY

CITY           SKY/WX    TMP DP  RH WIND       PRES   REMARKS
STOCKTON       SUNNY     81  55  40 N8        29.91S
MODESTO        SUNNY     86  54  33 NW12      29.89S
MERCED         SUNNY     86  53  32 NW10      29.89S
LEMOORE        SUNNY     89  53  29 N9        29.88S
FRESNO         SUNNY     89  51  27 NW9       29.89S
HANFORD        SUNNY     90  52  27 NW8       29.88S
PORTERVILLE    SUNNY     91  54  28 NW9       29.89S
BAKERSFIELD    SUNNY     90  51  26 NW10      29.88S
$$
CAZ011-012-071-280200-
NORTHERN MOUNTAINS

CITY           SKY/WX    TMP DP  RH WIND       PRES   REMARKS
YREKA          SUNNY     93  28  10 NW12      29.92S
MOUNT SHASTA   SUNNY     82  44  26 VRB3      30.00R
ALTURAS        SUNNY     85  31  14 W14G20    30.01F
$$
CAZ011-012-071-280200-
SIERRA NEVADA MTNS

CITY           SKY/WX    TMP DP  RH WIND       PRES   REMARKS
BLUE CANYON    SUNNY     73  39  29 SW8       30.19R
TRUCKEE        SUNNY     75  30  19 MISG      30.18R
TAHOE VLY ARPT SUNNY     77  29  17 S13G18    30.19R
MAMMOTH LAKES  FAIR      78  31  17 W6        30.20S
$$




USA.gov is the U.S. government's official web portal to all federal, state and local government web resources and services.